CW5234 Weather Reports


Display with metric or nautical units.
time (UTC)temp
F
wind
direction
speed
MPH
gust
MPH
rain 1hr
in
rain 24hr
in
rain mn
in
humidity
%
barometer
mb
20260505123323 62 164 3.0 6.0 0.00 0.00 0.00 68 1012.5
20260505122323 61 199 2.0 4.0 0.00 0.00 0.00 70 1012.8
20260505121322 60 180 0.0 0.0 0.00 0.00 0.00 73 1012.6
20260505120324 58 201 0.0 1.0 0.00 0.00 0.00 78 1012.8
20260505120221 58 202 1.0 2.0 0.00 0.00 0.00 79 1012.6
20260505115224 56 152 0.0 2.0 0.00 0.00 0.00 83 1012.6
20260505114323 54 176 1.0 2.0 0.00 0.00 0.00 85 1012.6
20260505113321 53 291 0.0 1.0 0.00 0.00 0.00 85 1012.5
20260505112324 53 180 0.0 0.0 0.00 0.00 0.00 85 1012.4
20260505111422 53 180 0.0 0.0 0.00 0.00 0.00 84 1012.5
20260505110424 53 180 0.0 0.0 0.00 0.00 0.00 83 1012.5
20260505100524 54 180 0.0 1.0 0.00 0.00 0.00 77 1012.3
20260505095621 56 180 0.0 0.0 0.00 0.00 0.00 75 1012.2
20260505094621 57 180 0.0 0.0 0.00 0.00 0.00 73 1012.0
20260505092622 59 180 0.0 1.0 0.00 0.00 0.00 71 1012.1
20260505091622 58 157 2.0 2.0 0.00 0.00 0.00 71 1011.7
20260505090722 58 157 2.0 2.0 0.00 0.00 0.00 70 1011.7
20260505085722 58 157 1.0 3.0 0.00 0.00 0.00 69 1011.6
20260505084722 59 157 2.0 2.0 0.00 0.00 0.00 69 1011.6
20260505083723 59 157 1.0 2.0 0.00 0.00 0.00 68 1011.6
20260505082722 59 157 2.0 2.0 0.00 0.00 0.00 67 1011.8
20260505081821 60 157 1.0 2.0 0.00 0.00 0.00 66 1011.7
20260505080824 60 157 2.0 2.0 0.00 0.00 0.00 67 1011.8
20260505075920 60 95 2.0 3.0 0.00 0.00 0.00 67 1011.7
20260505074923 60 135 1.0 3.0 0.00 0.00 0.00 66 1011.8
20260505073923 60 140 2.0 2.0 0.00 0.00 0.00 66 1011.9
20260505072922 60 157 0.0 1.0 0.00 0.00 0.00 65 1011.8
20260505071921 60 157 1.0 2.0 0.00 0.00 0.00 65 1011.8
20260505070922 60 176 1.0 2.0 0.00 0.00 0.00 65 1011.6
20260505065923 60 228 1.0 2.0 0.00 0.00 0.00 64 1011.6
20260505064924 60 124 1.0 2.0 0.00 0.00 0.00 64 1011.6
20260505064021 60 180 0.0 1.0 0.00 0.00 0.00 65 1011.6
20260505063121 60 157 0.0 3.0 0.00 0.00 0.00 65 1011.6
20260505062121 60 135 0.0 0.0 0.00 0.00 0.00 63 1011.6
20260505061122 60 135 1.0 1.0 0.00 0.00 0.00 65 1011.6
20260505060124 59 157 1.0 2.0 0.00 0.00 0.00 65 1011.5
20260505055122 59 202 0.0 1.0 0.00 0.00 0.00 64 1011.6
20260505054122 59 157 1.0 3.0 0.00 0.00 0.00 65 1011.6
20260505052222 58 157 1.0 2.0 0.00 0.00 0.00 65 1011.8
20260505050221 57 157 0.0 2.0 0.00 0.00 0.00 67 1011.8
20260505040423 57 157 0.0 1.0 0.00 0.00 0.00 60 1011.8
20260505035429 57 157 1.0 2.0 0.00 0.00 0.00 60 1011.9
20260505033428 57 157 0.0 1.0 0.00 0.00 0.00 60 1011.8
20260505032429 57 202 0.0 1.0 0.00 0.00 0.00 59 1011.9
20260505031430 57 225 0.0 0.0 0.00 0.00 0.00 59 1011.9
20260505030527 57 180 0.0 1.0 0.00 0.00 0.00 58 1012.0
20260505025530 58 180 0.0 0.0 0.00 0.00 0.00 58 1012.1
20260505024626 58 180 0.0 2.0 0.00 0.00 0.00 56 1012.2
20260505023629 59 180 1.0 1.0 0.00 0.00 0.00 56 1012.2
20260505022629 59 180 1.0 2.0 0.00 0.00 0.00 55 1012.2
20260505021630 60 180 0.0 2.0 0.00 0.00 0.00 53 1012.2
20260505020727 60 180 0.0 1.0 0.00 0.00 0.00 53 1012.1
20260505015728 60 180 0.0 0.0 0.00 0.00 0.00 52 1012.2
20260505014827 60 180 1.0 1.0 0.00 0.00 0.00 50 1012.2
20260505013828 61 180 0.0 0.0 0.00 0.00 0.00 50 1012.0
20260505012927 61 180 0.0 1.0 0.00 0.00 0.00 48 1012.1
20260505011930 61 180 0.0 1.0 0.00 0.00 0.00 49 1011.9
20260505010929 62 180 0.0 1.0 0.00 0.00 0.00 47 1011.8
20260505005028 64 180 1.0 1.0 0.00 0.00 0.00 45 1011.5
20260505004030 64 180 0.0 1.0 0.00 0.00 0.00 44 1011.5
20260505003128 65 180 1.0 1.0 0.00 0.00 0.00 43 1011.4
20260505002129 66 180 1.0 2.0 0.00 0.00 0.00 41 1011.3
20260505001128 66 180 1.0 1.0 0.00 0.00 0.00 40 1011.3
20260505000129 67 157 1.0 1.0 0.00 0.00 0.00 39 1011.2
20260504235127 68 180 0.0 2.0 0.00 0.00 0.00 37 1011.1
20260504234128 68 180 1.0 1.0 0.00 0.00 0.00 38 1010.9
20260504231128 69 183 2.0 4.0 0.00 0.00 0.00 36 1010.8
20260504230130 70 270 1.0 3.0 0.00 0.00 0.00 36 1010.7
20260504225227 70 182 1.0 3.0 0.00 0.00 0.00 36 1010.7
20260504223228 71 138 2.0 6.0 0.00 0.00 0.00 34 1010.7
20260504222229 72 205 2.0 6.0 0.00 0.00 0.00 33 1010.7
20260504221228 73 120 3.0 6.0 0.00 0.00 0.00 32 1010.7
20260504220230 74 165 2.0 3.0 0.00 0.00 0.00 31 1010.7
20260504215228 75 189 1.0 3.0 0.00 0.00 0.00 31 1010.8
20260504214229 76 149 3.0 4.0 0.00 0.00 0.00 30 1010.8
20260504213327 76 154 0.0 2.0 0.00 0.00 0.00 31 1010.9
20260504212329 75 233 1.0 3.0 0.00 0.00 0.00 31 1010.9
20260504211427 75 157 3.0 6.0 0.00 0.00 0.00 31 1010.9
20260504210428 74 147 1.0 3.0 0.00 0.00 0.00 32 1010.8
20260504205428 74 194 3.0 5.0 0.00 0.00 0.00 31 1010.8
20260504203528 75 199 0.0 6.0 0.00 0.00 0.00 29 1010.8
20260504202528 75 144 0.0 1.0 0.00 0.00 0.00 30 1011.0
20260504200529 75 303 2.0 3.0 0.00 0.00 0.00 31 1011.2
20260504195628 74 119 3.0 8.0 0.00 0.00 0.00 31 1011.0
20260504194627 74 169 2.0 4.0 0.00 0.00 0.00 30 1011.1
20260504193627 75 127 3.0 5.0 0.00 0.00 0.00 30 1011.0
20260504192629 74 283 0.0 3.0 0.00 0.00 0.00 31 1011.3
20260504191627 73 180 3.0 6.0 0.00 0.00 0.00 31 1011.4
20260504190628 74 257 1.0 6.0 0.00 0.00 0.00 31 1011.5
20260504185628 74 147 4.0 7.0 0.00 0.00 0.00 30 1011.8
20260504184627 73 177 3.0 6.0 0.00 0.00 0.00 31 1012.0
20260504183627 72 294 2.0 4.0 0.00 0.00 0.00 31 1012.0
20260504180727 72 185 1.0 4.0 0.00 0.00 0.00 32 1012.5
20260504175728 72 186 3.0 6.0 0.00 0.00 0.00 32 1012.8
20260504174729 71 155 2.0 7.0 0.00 0.00 0.00 33 1012.7
20260504173728 71 180 1.0 2.0 0.00 0.00 0.00 33 1012.9
20260504172728 71 134 3.0 4.0 0.00 0.00 0.00 33 1013.0
20260504171728 71 261 2.0 7.0 0.00 0.00 0.00 32 1013.0
20260504150827 64 127 2.0 4.0 0.00 0.00 0.00 43 1014.7
20260504140928 59 255 0.0 3.0 0.00 0.00 0.00 54 1015.0